sat.trackr.live / text

‹ back to catalog

STARLINK-31236

NORAD 58841 · 2024-017R

PAYLOAD ACTIVE UNKNOWN

§ Identity

Operator
Country
US
Launch date
2024-01-24
Launch site
AFWTR
Launch vehicle
Mass (kg)
RCS (m²)

Purposes: comms

External: N2YO · Heavens-Above · Gunter

§ Orbital elements

Epoch: 2026-09-20T14:26:39.975648Z

Period
93.85 min
Inclination
53.1631°
Eccentricity
0.0000823
Mean motion
15.34400465 rev/d
Perigee alt
462.1 km
Apogee alt
463.3 km
Semi-major
6,840.8 km
B*
5.7944e-5
RAAN
17.1631°
Arg perigee
102.9182°
Mean anomaly
257.1913°
Rev number
14,992

§ Raw data

STARLINK-312361 58841U 24017R   26263.60185157  .00001582  00000+0  57944-4 0  99902 58841  53.1631  17.1631 0000823 102.9182 257.1913 15.34400465149927

JSON: /api/v1/satellites/58841 · /tle

For live sub-satellite position, see the globe view (requires WebGL).

§ Visibility from observer

Set your observer location to see the next 7 days of passes ≥ 10°. The values pass through the URL so the page stays shareable.

No JS? Fill the form by hand. The geolocation button needs JavaScript.